This demonstration page uses our WeatherBlox Daily Observations layout. Learn more.

Left ArrowRight Arrow

39.08367, -84.50855

Hourly Observations for November 1, 2022

Temp ( °F °C ) Dew Point ( °F °C ) Humidity (%) Winds ( mph kmh ) Pressure ( in mb ) Visibility ( mi km ) Precip ( " mm )
12:17 am 00:17 Cloudy with Mist and Fog 58 14.4 58 14.4 100 100 Calm 30.00 1016 6 10 0.01 0.13
12:53 am 00:53 Cloudy with Mist and Fog 58 14.4 58 14.4 100 100 Calm 30.00 1016 5 8 0.01 0.13
1:08 am 01:08 Cloudy with Mist and Fog 58 14.4 57 13.9 97 97 SW 5 7 30.01 1016 6 10 0.00 0.00
1:17 am 01:17 Cloudy with Mist and Fog 59 15 58 14.4 96 96 SW 3 6 30.01 1016 6 10 0.00 0.00
1:29 am 01:29 Cloudy with Light Rain 58 14.4 57 13.9 97 97 SSW 5 7 30.01 1016 6 10 0.01 0.13
1:53 am 01:53 Cloudy with Mist and Fog 58 14.4 57 13.9 97 97 SSW 7 11 30.01 1016 6 10 0.01 0.13
2:02 am 02:02 Cloudy with Mist and Fog 58 14.4 58 14.4 100 100 SSW 6 9 30.02 1017 6 10 0.00 0.00
2:26 am 02:26 Cloudy with Mist and Fog 58 14.4 57 13.9 97 97 VRB 3 6 30.03 1017 6 10 0.00 0.00
2:40 am 02:40 Cloudy with Mist and Fog 58 14.4 57 13.9 97 97 undefined N/A 30.03 1017 6 10 0.00 0.00
2:53 am 02:53 Cloudy with Mist and Fog 58 14.4 57 13.9 97 97 S 5 7 30.02 1017 6 10 0.00 0.00
3:05 am 03:05 Cloudy with Mist and Fog 58 14.4 57 13.9 97 97 S 5 7 30.03 1017 6 10 0.00 0.00
3:53 am 03:53 Cloudy with Mist and Fog 58 14.4 57 13.9 97 97 undefined N/A 30.04 1017 6 10 0.00 0.00
4:09 am 04:09 Cloudy with Mist and Fog 58 14.4 57 13.9 97 97 undefined N/A 30.04 1017 6 10 0.00 0.00
4:53 am 04:53 Cloudy with Light Rain 57 13.9 57 13.9 100 100 undefined N/A 30.04 1017 5 8 0.01 0.13
5:02 am 05:02 Cloudy with Mist and Fog 57 13.9 57 13.9 100 100 undefined N/A 30.05 1018 5 8 0.01 0.13
5:07 am 05:07 Cloudy with Mist and Fog 57 13.9 57 13.9 100 100 undefined N/A 30.05 1018 5 8 0.01 0.13
5:52 am 05:52 Cloudy with Mist and Fog 57 13.9 57 13.9 100 100 S 3 6 30.06 1018 5 8 0.01 0.13
6:53 am 06:53 Cloudy with Mist and Fog 58 14.4 56 13.3 93 93 WSW 7 11 30.09 1019 6 10 0.00 0.00
7:53 am 07:53 Cloudy with Mist and Fog 57 13.9 56 13.3 96 96 WSW 3 6 30.11 1020 6 10 0.01 0.25
8:53 am 08:53 Cloudy with Mist and Fog 58 14.4 56 13.3 93 93 W 6 9 30.14 1021 5 8 0.00 0.00
9:53 am 09:53 Cloudy with Mist and Fog 59 15 55 12.8 87 87 W 5 7 30.17 1022 5 8 0.00 0.00
10:53 am 10:53 Mostly Cloudy 60 15.6 55 12.8 83 83 W 8 13 30.19 1023 7 11 0.00 0.00
11:53 am 11:53 Mostly Cloudy 62 16.7 55 12.8 78 78 W 9 15 30.20 1023 7 11 0.00 0.00
12:53 pm 12:53 Partly Cloudy 63 17.2 54 12.2 72 72 W 6 9 30.20 1023 7 11 0.00 0.00
1:53 pm 13:53 Cloudy 63 17.2 52 11.1 67 67 WSW 5 7 30.20 1023 10 16 0.00 0.00
2:53 pm 14:53 Cloudy 64 17.8 52 11.1 65 65 Calm 30.19 1022 9 14 0.00 0.00
3:53 pm 15:53 Cloudy 64 17.8 52 11.1 65 65 Calm 30.20 1023 8 13 0.00 0.00
4:53 pm 16:53 Mostly Cloudy 65 18.3 52 11.1 63 63 S 3 6 30.20 1023 9 14 0.00 0.00
5:53 pm 17:53 Sunny 63 17.2 53 11.7 70 70 S 5 7 30.21 1023 10 16 0.00 0.00
6:53 pm 18:53 Clear 58 14.4 52 11.1 81 81 SSE 3 6 30.23 1024 10 16 0.00 0.00
7:53 pm 19:53 Clear 54 12.2 52 11.1 93 93 Calm 30.24 1024 7 11 0.00 0.00
8:53 pm 20:53 Clear 51 10.6 51 10.6 100 100 Calm 30.26 1025 7 11 0.00 0.00
9:53 pm 21:53 Clear with Patchy Fog 49 9.4 49 9.4 100 100 Calm 30.28 1025 7 11 0.00 0.00
10:43 pm 22:43 Mostly Clear with Patchy Fog 48 8.9 48 8.9 100 100 Calm 30.31 1026 7 11 0.00 0.00
10:53 pm 22:53 Mostly Clear with Fog 47 8.3 47 8.3 100 100 Calm 30.30 1026 0 0 0.00 0.00
11:29 pm 23:29 Clear with Fog 47 8.3 47 8.3 100 100 Calm 30.32 1027 0 0 0.00 0.00
11:53 pm 23:53 Clear with Fog 47 8.3 47 8.3 100 100 Calm 30.30 1026 0 0 0.00 0.00

Powered by AerisWeather